Location: Bamazo
(6.7448°N, 10.8189°W)
Time: 17:18:48
(UTC+00:00)

CZ-4 R/B - Pass Details

Date: 18 September 2020
Orbit: 530 x 600 km, 97.7° (Epoch: 25 October)

Event Time Altitude Azimuth Distance (km) Brightness Sun altitude
Rises 20:09:02 0° 187° (S) 2,810 5.0 -22.6°
Reaches altitude 10° 20:11:22 10° 197° (SSW) 1,918 4.2 -23.2°
Maximum altitude 20:15:03 31° 259° (W) 1,056 3.3 -24.1°
Drops below altitude 10° 20:18:46 10° 322° (NW) 1,932 4.6 -25.0°
Sets 20:21:08 0° 332° (NNW) 2,834 5.4 -25.6°
